Regional Weather Roundup
Issued by NWS Little Rock, AR

Home | Current Version | Previous Version | Graphics & Text | Print | Product List | Glossary On
Versions: 1 2 3 4 5 6 7 8 9 10 11 12 13 14 15 16 17 18 19 20 21 22 23 24 25 26 27 28 29 30 31 32 33 34 35 36 37 38 39 40 41 42 43 44 45 46 47 48 49 50
000
ASUS44 KLZK 221005
RWRLZK

WEATHER ROUNDUP FOR ARKANSAS
NATIONAL WEATHER SERVICE LITTLE ROCK AR
500 AM CDT FRI AUG 22 2014

NOTE: "FAIR" INDICATES FEW OR NO CLOUDS BELOW 12,000 FEET WITH NO
SIGNIFICANT WEATHER AND/OR OBSTRUCTIONS TO VISIBILITY.

ARZ001-003-010-029-221100-
NORTHWEST ARKANSAS

CITY           SKY/WX    TMP DP  RH WIND       PRES   REMARKS
FAYETTEVILLE   CLEAR     76  70  82 SW5       30.02S
FORT SMITH     CLEAR     77  74  90 E3        29.99F
HARRISON       CLEAR     72  71  97 SE6       30.02F
BENTONVILLE    CLEAR     75  70  83 S6        30.02S
ROGERS         CLEAR     76  69  79 S9        30.03S
SILOAM SPGS    CLEAR     75  66  73 S10       30.02S
HIGHFILL       CLEAR     74  70  87 S7        30.01S
$$

ARZ004-005-016-221100-
NORTH CENTRAL ARKANSAS

CITY           SKY/WX    TMP DP  RH WIND       PRES   REMARKS
BATESVILLE     CLEAR     79  72  78 SW5       30.01S
FLIPPIN        CLEAR     73  66  78 CALM      30.00F
MTN HOME       CLEAR     73  70  90 S3        30.00F
$$

ARZ040-041-221100-
WEST CENTRAL ARKANSAS

CITY           SKY/WX    TMP DP  RH WIND       PRES   REMARKS
MENA           CLEAR     81  72  74 CALM      30.06S
MOUNT IDA      CLEAR     79  72  79 CALM      30.02S
$$

ARZ009-017-025-026-028-221100-
NORTHEAST ARKANSAS

CITY           SKY/WX    TMP DP  RH WIND       PRES   REMARKS
CORNING        FAIR      73  73 100 SW6       30.01R
JONESBORO      CLEAR     76  73  91 S5        30.01S
NEWPORT        CLEAR     75  74  97 S14       30.02F
WALNUT RIDGE   CLEAR     75  72  88 S6        30.00S
BLYTHEVILLE    CLEAR     75  75 100 SW8       30.03R
$$

ARZ022-023-033-042-044-221100-
CENTRAL ARKANSAS

CITY           SKY/WX    TMP DP  RH WIND       PRES   REMARKS
LITTLE ROCK    CLEAR     76  72  87 SW7       30.03F
N LITTLE ROCK    N/A     76  74  91 SW8       30.03F
JACKSONVILLE   CLEAR     76  74  92 VRB2      30.03F
SEARCY           N/A     75  74  97 CALM        N/A
HOT SPRINGS    CLEAR     77  73  87 SW3       30.05S
RUSSELLVILLE   CLEAR     75  72  90 CALM      30.02R
CLINTON        FAIR      72  72 100 CALM      30.04R FOG
$$

ARZ036-221100-
EAST ARKANSAS

CITY           SKY/WX    TMP DP  RH WIND       PRES   REMARKS
WEST MEMPHIS   CLEAR     75  75 100 S7        30.04S
$$

ARZ050-053-066-070-073-221100-
SOUTHWEST ARKANSAS

CITY           SKY/WX    TMP DP  RH WIND       PRES   REMARKS
ARKADELPHIA    FAIR      74  74 100 CALM      30.05S FOG
CAMDEN         CLEAR     73  70  88 CALM      30.05S
TEXARKANA      CLEAR     77  74  90 S9        30.04S
EL DORADO      CLEAR     72  71  97 S3        30.06S
DE QUEEN       PTCLDY    73  72  96 CALM      30.02R FOG
$$

ARZ056-057-069-221100-
SOUTHEAST ARKANSAS

CITY           SKY/WX    TMP DP  RH WIND       PRES   REMARKS
PINE BLUFF     CLEAR     73  70  90 S6        30.06R
STUTTGART      CLEAR     75  72  88 S8        30.05S
MONTICELLO     CLEAR     75  71  87 VRB3      30.07R

$$




USA.gov is the U.S. government's official web portal to all federal, state and local government web resources and services.